Location: Lugrin
(46.4033°N, 6.6674°E)
Time: 01:05:28
(UTC+00:00)

Cosmos 2278 Rocket - Pass Details

Date: 18 September 2020
Orbit: 841 x 845 km, 71.0° (Epoch: 31 October)

Event Time Altitude Azimuth Distance (km) Brightness Sun altitude
Exits shadow 21:21:53 16° 29° (NNE) 2,073 4.4 -34.8°
Drops below altitude 10° 21:22:57 10° 28° (NNE) 2,468 4.8 -34.9°
Sets 21:25:24 0° 28° (NNE) 3,407 5.6 -35.2°
